Location: Emblem
(62.4273°N, 6.4710°E)
Time: 00:15:24
(UTC+01:00)

Transit 2A Rocket - Pass Details

Date: 16 October 2024
Orbit: 584 x 906 km, 66.7° (Epoch: 05 November)

Event Time Altitude Azimuth Distance (km) Brightness Sun altitude
Rises 18:53:56 0° 224° (SW) 3,529 9.4 -5.2°
Reaches altitude 10° 18:56:28 10° 223° (SW) 2,590 8.6 -5.5°
Maximum altitude 19:02:31 73° 140° (SE) 936 5.4 -6.2°
Drops below altitude 10° 19:08:21 10° 57° (ENE) 2,502 7.1 -6.9°
Enters shadow 19:09:28 - 57° (ENE) 2,917 7.4 -7.0°
